Weather History for Omaha Millard, NE

Change the Weather History Date:

Tuesday, November 6, 2012

  Actual Average (KOMA) Record (KOMA)
Temperature  
Mean Temperature 48 °F 44 °F  
Max Temperature 56 °F 55 °F 80 °F (1980)
Min Temperature 39 °F 34 °F 7 °F (1991)
Degree Days  
Heating Degree Days 18 21  
Month to date heating degree days 118  
Since 1 July heating degree days 603  
Cooling Degree Days 0 0  
Month to date cooling degree days 0  
Year to date cooling degree days 1112  
Moisture  
Dew Point 34 °F    
Average Humidity 64    
Maximum Humidity 92    
Minimum Humidity 37    
Precipitation  
Precipitation 0.02 in 0.05 in 1.99 in (2000)
Month to date precipitation 0.37  
Year to date precipitation 28.31  
Snow  
Snow 0.00 in 0.00 in - ()
Month to date snowfall 0.2  
Since 1 July snowfall 0.5  
Snow Depth -    
Sea Level Pressure  
Sea Level Pressure 30.02 in    
Wind  
Wind Speed 8 mph (WNW)    
Max Wind Speed 25 mph    
Max Gust Speed 36 mph    
Visibility 9 miles    
Events      
T = Trace of Precipitation, MM = Missing Value Source: NWS Daily Summary

Daily Weather History Graph

Daily Weather History Graph

Search for Another Location

Airport:

Trip Planner

Search our weather history database for the weather conditions in past years. The results will help you decide how hot, cold, wet, or windy it might be!

Date:

Astronomy

Nov. 06, 2012 Rise Set
Actual Time 7:02 AM CST 5:13 PM CST
Civil Twilight 6:33 AM CST 5:42 PM CST
Nautical Twilight 6:00 AM CST 6:15 PM CST
Astronomical Twilight 5:28 AM CST 6:47 PM CST
Moon 11:54 PM CST (11/6) 12:54 PM CST (11/6)
Length of Visible Light 11h 09m
Length of Day
10h 11m
Waning Gibbous, 53% of the Moon is Illuminated
Nov 6
Waning Gibbous
Nov 6
Last Quarter
Nov 13
New
Nov 20
First Quarter
Nov 28
Full

Hourly Weather History & Observations

Time (CST) Temp. Windchill Dew Point Humidity Pressure Visibility Wind Dir Wind Speed Gust Speed Precip Events Conditions
12:15 AM 41.0 °F 39.0 °F 38.1 °F 89% 30.04 in 10.0 mi South 3.5 mph - N/A   Overcast
12:35 AM 40.6 °F 37.5 °F 37.8 °F 89% 30.02 in 7.0 mi South 4.6 mph - N/A   Scattered Clouds
12:55 AM 40.5 °F 37.3 °F 37.8 °F 90% 30.01 in 7.0 mi SSE 4.6 mph - N/A   Clear
1:15 AM 39.2 °F - 37.0 °F 92% 30.02 in 7.0 mi Calm Calm - N/A   Scattered Clouds
1:35 AM 40.3 °F - 37.9 °F 91% 30.03 in 7.0 mi Calm Calm - N/A   Mostly Cloudy
1:55 AM 40.5 °F - 37.9 °F 91% 30.03 in 7.0 mi Calm Calm - N/A   Overcast
2:15 AM 40.5 °F 38.4 °F 37.8 °F 90% 30.02 in 7.0 mi South 3.5 mph - N/A   Overcast
2:35 AM 40.5 °F 36.5 °F 37.8 °F 90% 30.01 in 7.0 mi SSW 5.8 mph - N/A   Overcast
2:55 AM 40.3 °F 36.3 °F 37.8 °F 91% 30.00 in 7.0 mi SSW 5.8 mph - N/A   Mostly Cloudy
3:15 AM 40.5 °F 37.3 °F 37.8 °F 90% 29.99 in 7.0 mi SSW 4.6 mph - N/A   Mostly Cloudy
3:35 AM 40.5 °F 36.5 °F 37.8 °F 90% 29.98 in 7.0 mi SSW 5.8 mph - N/A   Mostly Cloudy
3:55 AM 40.5 °F 36.5 °F 37.6 °F 89% 29.96 in 7.0 mi South 5.8 mph - N/A   Overcast
4:15 AM 40.5 °F 37.3 °F 37.8 °F 90% 29.96 in 7.0 mi SSW 4.6 mph - N/A   Mostly Cloudy
4:35 AM 40.5 °F 36.5 °F 37.8 °F 90% 29.95 in 7.0 mi SSW 5.8 mph - N/A   Scattered Clouds
4:55 AM 40.5 °F 38.4 °F 37.6 °F 89% 29.96 in 7.0 mi SW 3.5 mph - N/A   Clear
5:15 AM 40.5 °F 38.4 °F 37.6 °F 89% 29.95 in 7.0 mi SW 3.5 mph - N/A   Scattered Clouds
5:35 AM 40.3 °F 37.1 °F 37.2 °F 89% 29.96 in 10.0 mi SW 4.6 mph - N/A   Scattered Clouds
5:55 AM 39.9 °F 34.5 °F 36.5 °F 88% 29.95 in 10.0 mi WSW 8.1 mph - N/A   Clear
6:15 AM 39.4 °F 34.5 °F 36.3 °F 89% 29.96 in 10.0 mi West 6.9 mph - N/A   Clear
6:35 AM 39.6 °F 37.4 °F 36.5 °F 89% 29.96 in 10.0 mi NW 3.5 mph - N/A   Scattered Clouds
6:55 AM 40.5 °F 37.3 °F 36.9 °F 87% 29.96 in 10.0 mi WNW 4.6 mph - N/A   Scattered Clouds
7:15 AM 40.1 °F 38.0 °F 36.7 °F 88% 29.97 in 10.0 mi NW 3.5 mph - N/A   Clear
7:35 AM 39.4 °F 33.2 °F 36.5 °F 89% 29.98 in 10.0 mi WNW 9.2 mph - N/A   Clear
7:55 AM 42.8 °F 36.6 °F 38.7 °F 85% 30.00 in 10.0 mi NW 11.5 mph 17.3 mph N/A   Clear
8:15 AM 44.2 °F 37.0 °F 38.7 °F 81% 30.00 in 10.0 mi NW 16.1 mph 24.2 mph N/A   Clear
8:35 AM 46.0 °F 38.3 °F 37.6 °F 72% 30.01 in 10.0 mi NW 20.7 mph 27.6 mph N/A   Clear
8:55 AM 46.8 °F - 36.5 °F 67% 30.02 in 7.0 mi NNW 17.3 mph 21.9 mph 0.02 in   Clear
9:15 AM 47.8 °F - 35.6 °F 63% 30.02 in 10.0 mi NW 12.7 mph 21.9 mph N/A   Clear
9:35 AM 48.6 °F - 35.2 °F 60% 30.02 in 10.0 mi NW 13.8 mph 21.9 mph N/A   Clear
9:55 AM 48.9 °F - 34.5 °F 58% 30.03 in 10.0 mi NNW 15.0 mph 27.6 mph N/A   Clear
10:15 AM 49.6 °F - 34.3 °F 56% 30.03 in 10.0 mi NW 15.0 mph 24.2 mph N/A   Clear
10:35 AM 50.7 °F - 33.6 °F 52% 30.03 in 10.0 mi NNW 17.3 mph 25.3 mph N/A   Clear
10:55 AM 51.8 °F - 32.5 °F 48% 30.03 in 10.0 mi NW 16.1 mph 26.5 mph N/A   Clear
11:15 AM 52.5 °F - 32.5 °F 47% 30.03 in 10.0 mi NW 19.6 mph 26.5 mph N/A   Clear
11:35 AM 52.9 °F - 32.2 °F 45% 30.02 in 10.0 mi NW 18.4 mph 27.6 mph N/A   Clear
11:55 AM 54.0 °F - 32.0 °F 43% 30.01 in 10.0 mi WNW 19.6 mph 25.3 mph N/A   Clear
12:15 PM 54.7 °F - 31.3 °F 41% 30.01 in 10.0 mi NW 19.6 mph 27.6 mph N/A   Clear
12:35 PM 54.9 °F - 30.0 °F 39% 30.00 in 10.0 mi NW 21.9 mph 31.1 mph N/A   Clear
12:55 PM 55.8 °F - 30.6 °F 38% 29.99 in 10.0 mi NW 19.6 mph 27.6 mph N/A   Clear
1:15 PM 55.6 °F - 29.8 °F 37% 29.99 in 10.0 mi NW 17.3 mph 31.1 mph N/A   Clear
1:35 PM 56.3 °F - 30.0 °F 37% 29.98 in 10.0 mi NW 21.9 mph 27.6 mph N/A   Clear
1:55 PM 56.1 °F - 30.0 °F 37% 29.99 in 10.0 mi NW 23.0 mph 34.5 mph N/A   Clear
2:15 PM 56.5 °F - 30.2 °F 37% 29.99 in 10.0 mi NW 18.4 mph 32.2 mph N/A   Clear
2:35 PM 56.3 °F - 31.1 °F 38% 29.98 in 10.0 mi WNW 25.3 mph 29.9 mph N/A   Clear
2:55 PM 56.3 °F - 31.1 °F 38% 29.99 in 10.0 mi NW 20.7 mph 35.7 mph N/A   Clear
3:15 PM 56.3 °F - 31.1 °F 38% 30.00 in 10.0 mi NW 18.4 mph 27.6 mph N/A   Clear
3:35 PM 56.1 °F - 31.3 °F 39% 30.00 in 10.0 mi NNW 11.5 mph 27.6 mph N/A   Clear
3:55 PM 55.8 °F - 31.3 °F 39% 30.01 in 10.0 mi NW 13.8 mph 26.5 mph N/A   Clear
4:15 PM 55.4 °F - 31.5 °F 40% 30.01 in 10.0 mi NW 19.6 mph 27.6 mph N/A   Clear
4:35 PM 54.7 °F - 31.8 °F 42% 30.02 in 10.0 mi NW 19.6 mph 26.5 mph N/A   Clear
4:55 PM 54.3 °F - 32.0 °F 43% 30.02 in 10.0 mi NNW 10.4 mph 21.9 mph N/A   Clear
5:15 PM 53.2 °F - 32.0 °F 44% 30.02 in 10.0 mi NW 11.5 mph 19.6 mph N/A   Clear
5:35 PM 52.9 °F - 31.6 °F 44% 30.03 in 10.0 mi NW 13.8 mph 17.3 mph N/A   Clear
5:55 PM 52.0 °F - 31.6 °F 46% 30.04 in 10.0 mi NW 6.9 mph - N/A   Clear
6:15 PM 51.8 °F - 31.5 °F 46% 30.04 in 10.0 mi NW 11.5 mph - N/A   Clear
6:35 PM 50.9 °F - 31.5 °F 47% 30.05 in 10.0 mi NW 6.9 mph - N/A   Clear
6:55 PM 50.4 °F - 31.6 °F 49% 30.05 in 10.0 mi NW 8.1 mph - N/A   Clear
7:15 PM 49.6 °F - 31.6 °F 50% 30.05 in 10.0 mi WNW 8.1 mph - N/A   Clear
7:35 PM 48.4 °F - 31.6 °F 52% 30.06 in 10.0 mi NW 8.1 mph - N/A   Clear
7:55 PM 46.9 °F - 31.5 °F 55% 30.06 in 10.0 mi WNW 6.9 mph - N/A   Clear
8:15 PM 46.0 °F 43.1 °F 31.5 °F 57% 30.06 in 10.0 mi NW 5.8 mph - N/A   Clear
8:35 PM 46.0 °F 43.1 °F 31.3 °F 56% 30.06 in 10.0 mi NW 5.8 mph - N/A   Clear
8:55 PM 46.4 °F 42.9 °F 31.3 °F 56% 30.06 in 10.0 mi NW 6.9 mph - N/A   Clear
9:15 PM 45.0 °F 41.8 °F 31.1 °F 58% 30.07 in 10.0 mi NW 5.8 mph - N/A   Clear
9:35 PM 44.1 °F 41.5 °F 30.9 °F 60% 30.07 in 10.0 mi WNW 4.6 mph - N/A   Clear
9:55 PM 42.6 °F 40.9 °F 30.4 °F 62% 30.07 in 10.0 mi NW 3.5 mph - N/A   Clear
10:15 PM 40.6 °F 37.5 °F 30.6 °F 67% 30.07 in 10.0 mi NW 4.6 mph - N/A   Clear
10:35 PM 42.1 °F 39.2 °F 30.7 °F 64% 30.07 in 10.0 mi NW 4.6 mph - N/A   Clear
10:55 PM 41.9 °F 39.0 °F 30.7 °F 65% 30.07 in 10.0 mi WNW 4.6 mph - N/A   Clear
11:15 PM 41.9 °F 39.0 °F 30.9 °F 65% 30.07 in 10.0 mi NW 4.6 mph - N/A   Clear
11:35 PM 41.0 °F 38.0 °F 30.6 °F 66% 30.08 in 10.0 mi WNW 4.6 mph - N/A   Clear
11:55 PM 40.8 °F 37.8 °F 30.2 °F 66% 30.08 in 10.0 mi NW 4.6 mph - N/A   Clear